Tracking 31027 objects as of 19-Jul-2025
HD Live streaming from Space Station
objects crossing your sky now

DIRECTV 3 (DBS/NIMIQ 3)

Track DIRECTV 3 (DBS/NIMIQ 3) now!
DIRECTV 3 (DBS/NIMIQ 3) is classified as:


NORAD ID: 23598
Int'l Code: 1995-029A
Perigee: 36,149.7 km
Apogee: 36,155.5 km
Inclination: 11.4 °
Period: 1,454.5 minutes
Semi major axis: 42523 km
RCS: 31.8223 m2 (large)
Launch date: June 10, 1995
Source: United States (US)
Launch site: FRENCH GUIANA (FRGUI)

On-orbit backup; high resolution TV broadcast; USA and Western Hemispheric countries; 30 TV channels.
Your satellite tracking list
FENGYUN 1C DEB
Track 1 satellite(s)




NASA's NSSDC Master Catalog

Two Line Element Set (TLE):
1 23598U 95029A   25199.34065714 -.00000221  00000-0  00000-0 0  9994
2 23598  11.4136  37.7913 0000682  21.6218 350.2073  0.99005042109460
Source of the keplerian elements: AFSPC